Tracking 19286 objects as of 19-Nov-2018
HD Live streaming from Space Station
objects crossing your sky now

FLOCK 3P 31

Track FLOCK 3P 31 now!
10-day predictions
FLOCK 3P 31 is classified as:


NORAD ID: 42049
Int'l Code: 2017-008DF
Perigee: 492.5 km
Apogee: 504.4 km
Inclination: 97.4 °
Period: 94.4 minutes
Semi major axis: 6869 km
RCS: Unknown
Launch date: February 15, 2017
Source: United States (US)
Launch site: SRIHARIKOTA (SRI)
aabbcc
Your satellite tracking list
Your tracking list is empty




NASA's NSSDC Master Catalog

Two Line Element Set (TLE):
1 42049U 17008DF  18321.72587107  .00001293  00000-0  54953-4 0  9992
2 42049  97.4342  25.6256 0008606 162.2262 197.9278 15.24827686 96127
Source of the keplerian elements: AFSPC